OPS 4682 DEB, 12102

Orbit data source: Space-Track

OPS 4682 DEB, 12102 is space debris in LEO originally from a launch on Sat, 03 Apr 1965 UTC launched from the Air Force Western Test Range (AFWTR). Debris objects in space refer to the collection of defunct objects orbiting the Earth. Examples of debris include non-operational satellites, rocket bodies, and fragments generated from explosions, collisions, or faulty payload assembly.

Loading next visibility...
Identifier
12102, 1965-027G
Orbit
LEO
Country
Flag of USUS
Related business
Manufacturer
Unknown
Mission
Spacecraft
Bus & Motor
Unknown
Mass
Unknown
Launch date (UTC)
1965-04-03 (61 years ago)
Launch vehicle
Unknown
Launch site
Air Force Western Test Range (AFWTR)
Object type
Payload
Rocket body
Debris
Shape & HBR
Unknown shape, 0.1 m
Radar Cross Section
Small (<0.1 m²)

Expand to show TLE details & history
Last TLE update: 1 day ago

TLE from 1 day ago
0 OPS 4682 DEB
1 12102U 65027G   26207.25123652  .00000519  00000-0  17280-2 0  9994
2 12102  90.2497  15.4455 0024012 235.6819 303.5938 12.98775116895804
Epoch: 2026-07-26T06:01Z
TLE epoch observation values (Epoch: 2026-07-26T06:01:46.835Z)
Latitude
0.84658°
Longitude
161.05218°
Altitude
1,259.537 km
Speed
7.23 km/s
True Right ascension
13h 01m 47s
True Declination
0° 50' 31"
Sunlit
Object was in daylight at epoch
Visualization orbit readout
Latitude
Unknown
Longitude
Unknown
Altitude
Unknown
Speed
Unknown
Apparent Right ascension
Unknown
Apparent Declination
Unknown
Sunlit
N/A
Visualization observer readout
Local Sidereal Time
19:40:36
Azimuth
Unknown
Elevation
Unknown
Doppler factor
Unknown
Orbital elements
Apogee altitude
1,282.369 km
Perigee altitude
1,245.668 km
Semi-major axis
7,642.155 km
Eccentricity
0.0024
Inclination
90.2497°
RAAN
15.4455°
Arg. of periapsis
235.6819°
True anomaly
303.36422°
Mean anomaly
303.5938°
Eccentric anomaly
303.47905°
Mean motion
3.24877 °/min
Orbital period
110.81 mins
BSTAR
0.001728
Loading maneuver chart data...
Computing Atmospheric mass density...
Loading historical data...
Loading historical data...
Loading historical data...
Loading historical data...
Loading historical data...
Loading historical data...
Loading historical data...

Documentation

Showing up to 5 results
|